www.pogodaiklimat.ru

Погода и климат >> Архив погоды >> Бенин >> Cotonou


ПОГОДА в Cotonou

  • Прогноз погоды в Cotonou
  • Монитор погоды в Cotonou
  • Климат города

АРХИВ ПОГОДЫ в Cotonou

Время (UTC), дата Ветер
(напр.,м/с)
 
Видим.   Явления Облачность Т
(С)
Тd
(С)
f
(%)
Тe
(С)
Тes
(С)
Комфортность P
(гПа)
Po
(гПа)
Тmin
(С)
Tmax
(С)
R
(мм)
R24
(мм)
S
(см)
12 11.12 С 1 1200 м пыль 6/0
[Ci sp]
+31.4 +17.0 42 +35 +52 опасность
солнечного
удара
1010.8 1009.7
15 11.12 Ю 3 1200 м мгла 6/0
[Ci sp]
+30.9 +18.9 49 +36 +41 очень
душно
1009.2 1008.1
18 11.12 В 2 1500 м пыль 9/0
[Ac trans Ci sp]
+28.9 +19.1 55 +34 +34 очень
душно
1010.1 1009.0 +32.5
21 11.12 Ю 2 1200 м пыль 6/0
[Ac As Ci sp]
+28.5 +22.2 69 +37 +37 очень
душно
1011.6 1010.5
00 12.12 Ю 2 1200 м пыль 6/0
[Ci sp]
+28.0 +21.2 67 +35 +35 очень
душно
1010.5 1009.4
03 12.12 штиль 0 2400 м мгла 6/0
[Ci sp]
+27.1 +23.2 79 +36 +36 очень
душно
1009.5 1008.4
06 12.12 СВ 1 2500 м мгла 6/0
[Ci sp]
+25.9 +23.1 85 +35 +35 очень
душно
1010.4 1009.3 +25.7
09 12.12 С 2 2000 м мгла 6/0
[Ci sp]
+29.0 +23.5 72 +39 +47 очень
душно
1012.3 1011.2
12 12.12 Ю 3 2000 м мгла 6/0
[Ci sp]
+31.5 +21.7 56 +40 +52 опасность
солнечного
удара
1011.6 1010.5
15 12.12 Ю 3 2000 м пыль 6/0
[Ci sp]
+30.5 +21.9 60 +39 +44 очень
душно
1009.3 1008.2
18 12.12 Ю 2 2000 м пыль 6/0
[Ci sp]
+29.2 +23.1 70 +39 +39 очень
душно
1010.4 1009.3 +31.5
21 12.12 Ю 2 2000 м пыль 6/0
[Ci sp]
+29.0 +24.0 74 +40 +40 очень
душно
1012.3 1011.2
00 13.12 Ю 2 2000 м пыль 6/0
[Ci sp]
+28.6 +24.2 77 +40 +40 очень
душно
1011.7 1010.6
03 13.12 Ю 2 2000 м пыль 6/0
[Ci sp]
+29.0 +24.0 74 +40 +40 очень
душно
1012.3 1011.2
06 13.12 С 2 1200 м дымка 6/0
[Ci sp]
+25.6 +24.0 91 +35 +35 очень
душно
1011.4 1010.3 +25.5
09 13.12 С 2 1200 м дымка 6/0
[Ci sp]
+28.7 +25.6 83 +42 +50 опасность
перегрева
1012.9 1011.8
12 13.12 ЮЗ 2 1200 м пыль 6/0
[Ci sp]
+31.5 +25.2 69 +45 +60 опасность
перегрева
1010.5 1009.4
15 13.12 Ю 3 2200 м пыль 6/0
[Ci sp]
+31.1 +25.4 72 +45 +51 опасность
перегрева
1008.5 1007.4
18 13.12 Ю 3 2200 м пыль 6/0
[Ci sp]
+29.4 +25.3 79 +43 +43 опасность
перегрева
1010.0 1008.9 +32.0
21 13.12 Ю 4 2200 м пыль 6/0
[Ci sp]
+28.8 +25.6 83 +43 +43 опасность
перегрева
1011.8 1010.7
00 14.12 ЮЗ 2 2200 м пыль 6/0
[Ci sp]
+28.4 +25.0 82 +41 +41 опасность
перегрева
1011.0 1009.9
03 14.12 ЮЗ 2 2000 м пыль 6/1 330 м
[Sc Ci sp]
+28.0 +25.5 86 +41 +41 опасность
перегрева
1009.4 1008.3
06 14.12 СЗ 1 1200 м дымка 8/3 330 м
[Sc Ci sp]
+26.0 +25.2 95 +37 +37 очень
душно
1010.4 1009.3 +25.9
09 14.12 СЗ 2 3500 м пыль 8/1 330 м
[Cu Sc Ci sp]
+28.0 +25.9 88 +42 +48 опасность
перегрева
1012.2 1011.1
12 14.12 Ю 4 3500 м мгла 9/5 360 м
[Cu Sc Ci sp]
+31.4 +25.5 71 +46 +50 опасность
перегрева
1011.2 1010.1
15 14.12 Ю 4 4000 м мгла 6/0
[Ci sp]
+30.6 +25.4 74 +45 +49 опасность
перегрева
1008.8 1007.7
18 14.12 Ю 3 4000 м мгла 6/0
[Ci sp]
+29.1 +25.2 80 +42 +42 опасность
перегрева
1010.0 1008.9 +31.5
21 14.12 Ю 3 4000 м мгла 6/0
[Ci sp]
+28.7 +25.6 83 +42 +42 опасность
перегрева
1012.1 1011.0
00 15.12 ЮЗ 4 4000 м мгла 8/3 360 м
[Sc Ci sp]
+28.4 +25.0 82 +41 +41 опасность
перегрева
1011.5 1010.4
03 15.12 ЮЗ 5 4000 м мгла 9/5 360 м
[Sc Ci sp]
+28.2 +25.1 83 +41 +41 опасность
перегрева
1010.5 1009.4
06 15.12 СЗ 2 3000 м дымка 8/6 330 м
[Cu med, cong Ci sp]
+26.0 +25.0 94 +37 +37 очень
душно
1011.0 1009.9 +26.0
09 15.12 З 4 4000 м мгла 8/3 360 м
[Cu Sc Ci sp]
+29.3 +25.7 81 +43 +47 опасность
перегрева
1012.6 1011.5
12 15.12 ЮЗ 6 8000 м 6/1 400 м
[Cu med, cong Ci sp]
+31.2 +25.0 70 +45 +50 опасность
перегрева
1010.7 1009.6
15 15.12 ЮЗ 5 6000 м мгла 6/0
[Ci sp]
+30.7 +25.5 74 +45 +48 опасность
перегрева
1008.0 1006.9
21 15.12 Ю 4 6000 м 6/0
[Ci sp]
+28.7 +25.9 85 +43 +43 опасность
перегрева
1010.8 1009.7
00 16.12 ЮЗ 4 6000 м 6/0
[Ci sp]
+28.5 +25.7 85 +42 +42 опасность
перегрева
1010.6 1009.5
03 16.12 ЮЗ 6 6000 м 9/4 330 м
[Sc Ci sp]
+28.4 +25.6 85 +42 +42 опасность
перегрева
1009.0 1007.9
06 16.12 С 1 4500 м дымка 9/5 330 м
[Cu Sc Ci sp]
+27.6 +25.6 89 +41 +41 опасность
перегрева
1009.8 1008.7 +27.5
09 16.12 ЮЗ 4 6000 м мгла 9/5 330 м
[Cu Sc Ci sp]
+30.0 +24.9 74 +43 +45 опасность
перегрева
1012.0 1010.9
12 16.12 Ю 4 8000 м мгла 8/3 360 м
[Cu Sc Ci sp]
+31.5 +25.8 72 +47 +53 опасность
перегрева
1010.2 1009.1
15 16.12 Ю 4 8000 м мгла 6/1 360 м
[Sc Ci sp]
+31.3 +26.5 76 +48 +52 опасность
перегрева
1007.9 1006.8
18 16.12 ЮЗ 4 8000 м 6/0
[Ci sp]
+29.2 +26.3 84 +44 +44 опасность
перегрева
1008.8 1007.7 +31.4
21 16.12 ЮЗ 4 8000 м 9/5 330 м
[Sc Ci sp]
+29.0 +26.9 88 +45 +45 опасность
перегрева
1011.2 1010.1
00 17.12 ЮЗ 5 8000 м 9/6 330 м
[Sc Ci sp]
+29.7 +26.7 84 +46 +46 опасность
перегрева
1010.6 1009.5
03 17.12 ЮЗ 4 8000 м 9/6 330 м
[Sc Ci sp]
+28.2 +26.5 91 +44 +44 опасность
перегрева
1009.4 1008.3
06 17.12 ЮЗ 5 6000 м 9/5 330 м
[Cu Sc Ac As Ci sp]
+28.0 +26.0 89 +42 +42 опасность
перегрева
1010.1 1009.0
09 17.12 ЮЗ 5 8000 м 9/4 330 м
[Cu Sc Ac trans Ci sp]
+30.0 +26.5 82 +46 +48 опасность
перегрева
1011.6 1010.5
12 17.12 ЮЗ 5 8000 м 9/3 360 м
[Cb cap Ac trans Ci sp]
+31.1 +26.8 78 +48 +52 опасность
перегрева
1010.5 1009.4
15 17.12 ЮЗ 6 8000 м 9/3 360 м
[Cb cap Ac As Ci sp]
+30.0 +25.4 76 +44 +45 опасность
перегрева
1007.9 1006.8
18 17.12 ЮЗ 4 8000 м 8/3 360 м
[Cu Sc Ci sp]
+29.0 +25.6 82 +43 +43 опасность
перегрева
1009.0 1007.9 +31.6
21 17.12 Ю 3 6000 м 6/0
[Ci sp]
+28.4 +26.5 89 +43 +43 опасность
перегрева
1011.5 1010.4
00 18.12 ЮЗ 4 6000 м 9/5 330 м
[Sc Ci sp]
+28.2 +26.8 92 +44 +44 опасность
перегрева
1011.2 1010.1
03 18.12 ЮЗ 4 6000 м 9/5 300 м
[Sc Ac trans Ci sp]
+28.0 +26.8 93 +44 +44 опасность
перегрева
1009.7 1008.6
06 18.12 ЮЗ 4 4500 м дымка 9/3 300 м
[Sc Ac trans Ci sp]
+10.4 +26.7 100 +8 +8 1009.3 1009.0 +27.7
09 18.12 ЮЗ 4 8000 м 9/5 360 м
[Cu Sc Ac trans Ci sp]
+29.5 +26.7 85 +46 +48 опасность
перегрева
1011.8 1010.7

 

Местоположение метеостанции Cotonou (Бенин): широта 6.35 долгота 2.38 высота над уровнем моря 9 м.

В архиве по умолчанию представлена погода в Cotonou за последнюю неделю. Архивные данные за месяц целиком и за предыдущие месяцы, начиная с января 2011 года, Вы можете получить, выбрав интересующий диапазон дат из раскрывающегося списка и нажав кнопку "Ввод!".

Внимание! Время в таблицах - всемирное. Для получения местного времени необходимо прибавить поправку, которая в Cotonou равна 1 ч.

Смотрите также архив погоды в соседних городах и на ближайших метеорологических станциях:

Погода в Bohicon (Бенин) (97 км)
Погода в Tabligbo (Того) (101 км)
Погода в Lagos (Нигерия) (108 км)
Погода в Lome (Того) (127 км)
Погода в Akatsi (Гана) (177 км)
Погода в Ijebu Ode (Нигерия) (179 км)
Погода в Save (Бенин) (187 км)
Погода в Atakpame (Того) (195 км)
Погода в Ada (Гана) (204 км)
Погода в Ibadan (Нигерия) (206 км)

Пояснения к столбцам:

Ветер - указаны скорость ветра в м/с - средняя за 10 мин, порывы в срок и между сроками (в фигурных скобках) и направление, откуда дует ветер: С - северный, СВ - северо-восточный, В - восточный, ЮВ - юго-восточный, Ю - южный, ЮЗ - юго-западный, З - западный, СЗ - северо-западный.
Видимость - горизонтальная дальность видимости в метрах или километрах. При видимости от 1 до 10 км при отсутствии осадков обычно наблюдается дымка, при ухудшении видимости до 1 км и менее - туман. В сухую погоду видимость может ухудшаться дымом, пылью или мглою.
Явления - указаны атмосферные явления, наблюдавшиеся в срок или в последний час перед сроком; фигурными скобками обозначены явления, наблюдавшиеся между сроками (за 1-3 часа до срока); квадратными скобками обозначены град или гололедные отложения с указанием их диаметра в мм.
Облачность - указаны через наклонную черту общая и нижняя облачность в баллах и высота нижней границы облаков в метрах; квадратными скобками обозначены формы облаков: Ci - перистые, Cs - перисто-слоистые, Cc - перисто-кучевые, Ac - высококучевые, As - высокослоистые, Sc - слоисто-кучевые, Ns - слоисто-дождевые, Cu - кучевые, Cb - кучево-дождевые. Подробнее классификацию облаков см. в Атласе облаков (PDF).
T - Температура воздуха - температура, измеренная на высоте 2 м над землей.
Td - Температура точки росы - температура, при понижении до которой содержащийся в воздухе водяной пар достигнет насыщения.
f - Относительная влажность воздуха - влажноcть воздуха, измеренная на высоте 2 м над землей.
Te - Эффективная температура - температура, которую ощущает одетый по сезону человек в тени. Характеристика душности погоды. При расчете учитывается влияние влажности воздуха и скорости ветра на теплоощущения человека.
Tes - Эффективная температура на солнце - температура, которую ощущает человек, с поправкой на солнечный нагрев. Характеристика знойности погоды. Зависит от высоты солнца над горизонтом, облачности и скорости ветра. Ночью, в пасмурную погоду, а также при ветре 12 м/с и более поправка равна нулю.
P - Атмосферное давление - приведенное к уровню моря атмосферное давление.
Po - Атмосферное давление - измеренное на уровне метеостанции атмосферное давление.
Tmin - Минимальная температура - минимум температуры воздуха на высоте 2 м над землей.
Tmax - Максимальная температура - максимум температуры воздуха на высоте 2 м над землей.
R - Количество осадков - Количество выпавших осадков за период времени, мм. При наведении курсора мыши на число - период времени, за который выпало указанное количество осадков.
R24 - Количество осадков - Количество выпавших осадков за 24 часа, мм.
S - Снежный покров - Высота снежного покрова, см. При наведении курсора мыши на число - состояние снежного покрова и степень покрытия местности в баллах.